| time (UTC) | temp F | wind direction | speed MPH | gust MPH | rain 1hr in | rain 24hr in | rain mn in | humidity % | barometer mb |
| 20260904144704 | 74 | 247 | 1.0 | 3.0 | 0.00 | 0.01 | 0.00 | 82 | 1009.3 |
| 20260904144204 | 73 | 63 | 3.0 | 6.0 | 0.00 | 0.01 | 0.00 | 82 | 1009.4 |
| 20260904143705 | 73 | 54 | 1.0 | 5.0 | 0.00 | 0.01 | 0.00 | 85 | 1009.4 |
| 20260904143204 | 72 | 242 | 1.0 | 3.0 | 0.00 | 0.01 | 0.00 | 86 | 1009.5 |
| 20260904142204 | 71 | 67 | 1.0 | 3.0 | 0.00 | 0.01 | 0.00 | 90 | 1009.6 |
| 20260904141704 | 71 | 259 | 0.0 | 3.0 | 0.00 | 0.01 | 0.00 | 90 | 1009.6 |
| 20260904140204 | 70 | 240 | 2.0 | 5.0 | 0.00 | 0.01 | 0.00 | 93 | 1009.7 |
| 20260904135704 | 70 | 315 | 0.0 | 0.0 | 0.00 | 0.01 | 0.00 | 95 | 1009.7 |
| 20260904135205 | 69 | 313 | 0.0 | 3.0 | 0.00 | 0.01 | 0.00 | 96 | 1009.7 |
| 20260904133704 | 69 | 239 | 0.0 | 1.0 | 0.00 | 0.01 | 0.00 | 97 | 1009.7 |
| 20260904131204 | 67 | 128 | 0.0 | 1.0 | 0.00 | 0.01 | 0.00 | 98 | 1009.8 |
| 20260904130704 | 67 | 62 | 0.0 | 1.0 | 0.00 | 0.01 | 0.00 | 98 | 1009.9 |
| 20260904130204 | 67 | 62 | 0.0 | 1.0 | 0.00 | 0.01 | 0.00 | 98 | 1009.8 |
| 20260904125704 | 67 | 63 | 0.0 | 0.0 | 0.00 | 0.01 | 0.00 | 98 | 1009.9 |
| 20260904123704 | 67 | 63 | 0.0 | 0.0 | 0.00 | 0.01 | 0.00 | 99 | 1009.9 |
| 20260904122704 | 66 | 63 | 0.0 | 0.0 | 0.00 | 0.01 | 0.00 | 98 | 1009.9 |
| 20260904120204 | 66 | 63 | 0.0 | 2.0 | 0.00 | 0.01 | 0.00 | 98 | 1009.7 |
| 20260904113704 | 66 | 61 | 0.0 | 0.0 | 0.00 | 0.01 | 0.00 | 99 | 1009.9 |
| 20260904113204 | 66 | 61 | 0.0 | 0.0 | 0.00 | 0.01 | 0.00 | 98 | 1009.9 |
| 20260904112204 | 66 | 63 | 0.0 | 0.0 | 0.00 | 0.01 | 0.00 | 99 | 1009.8 |
| 20260904111704 | 66 | 63 | 0.0 | 0.0 | 0.00 | 0.01 | 0.00 | 99 | 1009.8 |
| 20260904111204 | 66 | 63 | 0.0 | 0.0 | 0.00 | 0.01 | 0.00 | 99 | 1009.8 |
| 20260904110704 | 66 | 63 | 0.0 | 0.0 | 0.00 | 0.01 | 0.00 | 98 | 1009.8 |
| 20260904110204 | 66 | 63 | 0.0 | 0.0 | 0.00 | 0.01 | 0.00 | 98 | 1009.7 |
| 20260904104204 | 66 | 63 | 0.0 | 0.0 | 0.00 | 0.01 | 0.00 | 99 | 1009.6 |
| 20260904103704 | 66 | 63 | 0.0 | 0.0 | 0.00 | 0.01 | 0.00 | 98 | 1009.4 |
| 20260904102704 | 66 | 63 | 0.0 | 0.0 | 0.00 | 0.01 | 0.00 | 98 | 1009.4 |
| 20260904101704 | 66 | 63 | 0.0 | 0.0 | 0.00 | 0.01 | 0.00 | 98 | 1009.5 |
| 20260904100704 | 66 | 65 | 0.0 | 0.0 | 0.00 | 0.01 | 0.00 | 98 | 1009.4 |
| 20260904100204 | 66 | 65 | 0.0 | 0.0 | 0.00 | 0.02 | 0.00 | 98 | 1009.3 |
| 20260904095704 | 66 | 65 | 0.0 | 0.0 | 0.00 | 0.02 | 0.00 | 98 | 1009.3 |
| 20260904094203 | 66 | 65 | 0.0 | 0.0 | 0.00 | 0.02 | 0.00 | 98 | 1009.4 |
| 20260904092204 | 66 | 65 | 0.0 | 0.0 | 0.00 | 0.03 | 0.00 | 98 | 1009.4 |
| 20260904090704 | 66 | 65 | 0.0 | 0.0 | 0.00 | 0.04 | 0.00 | 98 | 1009.3 |
| 20260904090204 | 66 | 65 | 0.0 | 0.0 | 0.00 | 0.04 | 0.00 | 98 | 1009.2 |
| 20260904085704 | 66 | 65 | 0.0 | 0.0 | 0.00 | 0.04 | 0.00 | 98 | 1009.3 |
| 20260904084203 | 66 | 65 | 0.0 | 0.0 | 0.00 | 0.04 | 0.00 | 98 | 1009.3 |
| 20260904083704 | 66 | 65 | 0.0 | 0.0 | 0.00 | 0.04 | 0.00 | 98 | 1009.2 |
| 20260904083203 | 66 | 65 | 0.0 | 0.0 | 0.00 | 0.04 | 0.00 | 98 | 1009.3 |
| 20260904082204 | 66 | 65 | 0.0 | 0.0 | 0.00 | 0.04 | 0.00 | 98 | 1009.5 |
| 20260904081204 | 66 | 65 | 0.0 | 0.0 | 0.00 | 0.05 | 0.00 | 98 | 1009.6 |
| 20260904075704 | 66 | 65 | 0.0 | 0.0 | 0.00 | 0.09 | 0.00 | 98 | 1009.7 |
| 20260904075203 | 66 | 65 | 0.0 | 0.0 | 0.00 | 0.09 | 0.00 | 98 | 1009.6 |
| 20260904074704 | 66 | 65 | 0.0 | 0.0 | 0.00 | 0.09 | 0.00 | 98 | 1009.6 |
| 20260904074204 | 66 | 65 | 0.0 | 0.0 | 0.00 | 0.09 | 0.00 | 98 | 1009.5 |
| 20260904073204 | 66 | 65 | 0.0 | 0.0 | 0.00 | 0.09 | 0.00 | 98 | 1009.5 |
| 20260904072704 | 66 | 65 | 0.0 | 0.0 | 0.00 | 0.09 | 0.00 | 98 | 1009.5 |
| 20260904071704 | 66 | 65 | 0.0 | 0.0 | 0.00 | 0.09 | 0.00 | 98 | 1009.7 |
| 20260904065704 | 66 | 65 | 0.0 | 0.0 | 0.00 | 0.09 | 0.00 | 98 | 1009.8 |
| 20260904065204 | 66 | 65 | 0.0 | 0.0 | 0.00 | 0.09 | 0.00 | 98 | 1009.9 |
| 20260904064703 | 66 | 65 | 0.0 | 0.0 | 0.00 | 0.09 | 0.00 | 98 | 1009.9 |
| 20260904063704 | 66 | 65 | 0.0 | 0.0 | 0.00 | 0.09 | 0.00 | 97 | 1009.9 |
| 20260904062203 | 66 | 65 | 0.0 | 0.0 | 0.00 | 0.09 | 0.00 | 97 | 1010.0 |
| 20260904061204 | 66 | 65 | 0.0 | 0.0 | 0.00 | 0.09 | 0.00 | 97 | 1010.2 |
| 20260904055704 | 66 | 65 | 0.0 | 0.0 | 0.00 | 0.09 | 0.00 | 97 | 1010.5 |
| 20260904055204 | 66 | 65 | 0.0 | 0.0 | 0.00 | 0.09 | 0.00 | 97 | 1010.5 |
| 20260904054703 | 66 | 65 | 0.0 | 0.0 | 0.00 | 0.09 | 0.00 | 97 | 1010.5 |
| 20260904054204 | 66 | 65 | 0.0 | 0.0 | 0.00 | 0.09 | 0.00 | 97 | 1010.5 |
| 20260904053703 | 66 | 65 | 0.0 | 0.0 | 0.00 | 0.09 | 0.00 | 97 | 1010.5 |
| 20260904053203 | 66 | 65 | 0.0 | 0.0 | 0.00 | 0.09 | 0.00 | 97 | 1010.6 |
| 20260904052704 | 67 | 65 | 0.0 | 0.0 | 0.00 | 0.09 | 0.00 | 97 | 1010.6 |
| 20260904051203 | 67 | 65 | 0.0 | 0.0 | 0.00 | 0.09 | 0.00 | 97 | 1010.9 |
| 20260904050204 | 67 | 65 | 0.0 | 0.0 | 0.00 | 0.09 | 0.00 | 97 | 1010.8 |
| 20260904045704 | 67 | 65 | 0.0 | 0.0 | 0.00 | 0.09 | 0.00 | 97 | 1010.7 |
| 20260904045204 | 67 | 65 | 0.0 | 0.0 | 0.00 | 0.09 | 0.00 | 97 | 1010.7 |
| 20260904044204 | 67 | 63 | 0.0 | 0.0 | 0.00 | 0.09 | 0.00 | 97 | 1010.8 |
| 20260904043703 | 67 | 63 | 0.0 | 0.0 | 0.00 | 0.09 | 0.00 | 97 | 1010.8 |
| 20260904042703 | 67 | 63 | 0.0 | 0.0 | 0.00 | 0.09 | 0.00 | 97 | 1011.0 |
| 20260904042204 | 67 | 63 | 0.0 | 0.0 | 0.00 | 0.09 | 0.00 | 97 | 1010.9 |
| 20260904035703 | 67 | 63 | 0.0 | 0.0 | 0.00 | 0.09 | 0.09 | 97 | 1011.2 |
| 20260904034703 | 67 | 63 | 0.0 | 1.0 | 0.00 | 0.09 | 0.09 | 97 | 1011.3 |
| 20260904032704 | 67 | 63 | 0.0 | 1.0 | 0.00 | 0.09 | 0.09 | 97 | 1011.3 |
| 20260904032203 | 67 | 61 | 0.0 | 0.0 | 0.00 | 0.09 | 0.09 | 97 | 1011.3 |
| 20260904031704 | 67 | 61 | 0.0 | 0.0 | 0.01 | 0.09 | 0.09 | 97 | 1011.4 |
| 20260904030204 | 67 | 61 | 0.0 | 1.0 | 0.01 | 0.09 | 0.09 | 96 | 1011.4 |
| 20260904025703 | 67 | 61 | 0.0 | 0.0 | 0.01 | 0.09 | 0.09 | 96 | 1011.4 |
| 20260904023203 | 67 | 61 | 0.0 | 0.0 | 0.01 | 0.09 | 0.09 | 96 | 1011.3 |
| 20260904022704 | 67 | 61 | 0.0 | 0.0 | 0.01 | 0.09 | 0.09 | 96 | 1011.4 |
| 20260904022204 | 67 | 61 | 0.0 | 0.0 | 0.01 | 0.09 | 0.09 | 96 | 1011.3 |
| 20260904020703 | 67 | 61 | 0.0 | 0.0 | 0.00 | 0.08 | 0.08 | 96 | 1011.4 |
| 20260904014203 | 67 | 61 | 0.0 | 0.0 | 0.00 | 0.08 | 0.08 | 95 | 1011.6 |
| 20260904012704 | 68 | 61 | 0.0 | 0.0 | 0.00 | 0.08 | 0.08 | 95 | 1011.7 |
| 20260904012204 | 68 | 61 | 0.0 | 0.0 | 0.00 | 0.08 | 0.08 | 95 | 1011.7 |
| 20260904011705 | 68 | 61 | 0.0 | 0.0 | 0.00 | 0.08 | 0.08 | 95 | 1011.7 |
| 20260904011204 | 68 | 61 | 0.0 | 0.0 | 0.00 | 0.08 | 0.08 | 95 | 1011.7 |
| 20260904010204 | 68 | 61 | 0.0 | 0.0 | 0.00 | 0.08 | 0.08 | 95 | 1011.6 |
| 20260904005204 | 68 | 61 | 0.0 | 0.0 | 0.00 | 0.08 | 0.08 | 95 | 1011.5 |
| 20260904004705 | 68 | 61 | 0.0 | 0.0 | 0.00 | 0.08 | 0.08 | 94 | 1011.4 |
| 20260904003704 | 69 | 61 | 0.0 | 0.0 | 0.00 | 0.08 | 0.08 | 94 | 1011.4 |
| 20260904002205 | 69 | 61 | 0.0 | 0.0 | 0.00 | 0.08 | 0.08 | 94 | 1011.2 |
| 20260904001704 | 69 | 61 | 0.0 | 0.0 | 0.00 | 0.08 | 0.08 | 94 | 1011.1 |
| 20260904000204 | 70 | 61 | 0.0 | 0.0 | 0.00 | 0.08 | 0.08 | 94 | 1010.8 |
| 20260903235705 | 70 | 61 | 0.0 | 0.0 | 0.00 | 0.08 | 0.08 | 93 | 1010.9 |
| 20260903233705 | 70 | 61 | 0.0 | 0.0 | 0.00 | 0.08 | 0.08 | 93 | 1010.8 |
| 20260903231704 | 71 | 61 | 0.0 | 0.0 | 0.00 | 0.08 | 0.08 | 93 | 1010.9 |
| 20260903230704 | 72 | 61 | 0.0 | 0.0 | 0.00 | 0.08 | 0.08 | 93 | 1011.1 |
| 20260903225205 | 72 | 61 | 0.0 | 0.0 | 0.00 | 0.08 | 0.08 | 93 | 1010.8 |
| 20260903224704 | 72 | 61 | 0.0 | 0.0 | 0.00 | 0.08 | 0.08 | 93 | 1010.8 |
| 20260903224204 | 72 | 61 | 0.0 | 0.0 | 0.00 | 0.08 | 0.08 | 92 | 1010.7 |
| 20260903223705 | 73 | 61 | 0.0 | 0.0 | 0.00 | 0.08 | 0.08 | 92 | 1010.6 |
| 20260903223204 | 73 | 61 | 0.0 | 0.0 | 0.00 | 0.08 | 0.08 | 92 | 1011.0 |
| 20260903221705 | 73 | 61 | 0.0 | 0.0 | 0.00 | 0.08 | 0.08 | 92 | 1011.3 |
| 20260903221204 | 73 | 61 | 0.0 | 0.0 | 0.00 | 0.08 | 0.08 | 92 | 1011.4 |
| 20260903220205 | 73 | 61 | 0.0 | 0.0 | 0.00 | 0.08 | 0.08 | 91 | 1011.3 |
| 20260903215705 | 73 | 61 | 0.0 | 0.0 | 0.00 | 0.08 | 0.08 | 92 | 1011.2 |
| 20260903215204 | 73 | 61 | 0.0 | 0.0 | 0.00 | 0.08 | 0.08 | 92 | 1011.3 |
| 20260903213705 | 74 | 61 | 0.0 | 0.0 | 0.00 | 0.08 | 0.08 | 91 | 1011.3 |
| 20260903213205 | 74 | 61 | 0.0 | 0.0 | 0.00 | 0.08 | 0.08 | 90 | 1011.3 |
| 20260903205704 | 74 | 61 | 0.0 | 2.0 | 0.00 | 0.08 | 0.08 | 87 | 1011.3 |
| 20260903205205 | 74 | 62 | 0.0 | 1.0 | 0.00 | 0.08 | 0.08 | 87 | 1011.3 |
| 20260903204204 | 74 | 63 | 0.0 | 0.0 | 0.00 | 0.08 | 0.08 | 88 | 1011.3 |
| 20260903203704 | 74 | 63 | 0.0 | 0.0 | 0.00 | 0.08 | 0.08 | 88 | 1011.3 |
| 20260903201704 | 74 | 66 | 0.0 | 1.0 | 0.00 | 0.08 | 0.08 | 87 | 1011.3 |
| 20260903201205 | 74 | 66 | 0.0 | 0.0 | 0.00 | 0.08 | 0.08 | 87 | 1011.5 |
| 20260903195704 | 73 | 66 | 0.0 | 2.0 | 0.00 | 0.08 | 0.08 | 87 | 1011.6 |
| 20260903195204 | 73 | 67 | 0.0 | 2.0 | 0.00 | 0.08 | 0.08 | 88 | 1011.8 |
| 20260903194704 | 72 | 67 | 0.0 | 1.0 | 0.00 | 0.08 | 0.08 | 88 | 1011.8 |
| 20260903192704 | 72 | 52 | 0.0 | 0.0 | 0.00 | 0.08 | 0.08 | 89 | 1012.0 |
| 20260903191204 | 72 | 53 | 0.0 | 1.0 | 0.00 | 0.08 | 0.08 | 88 | 1012.0 |
| 20260903190704 | 72 | 53 | 0.0 | 1.0 | 0.00 | 0.08 | 0.08 | 89 | 1012.1 |
| 20260903190204 | 72 | 51 | 0.0 | 0.0 | 0.00 | 0.08 | 0.08 | 88 | 1012.2 |
| 20260903185704 | 72 | 51 | 0.0 | 1.0 | 0.00 | 0.08 | 0.08 | 87 | 1012.3 |
| 20260903184705 | 71 | 131 | 0.0 | 0.0 | 0.00 | 0.08 | 0.08 | 90 | 1012.5 |
| 20260903184204 | 71 | 131 | 0.0 | 2.0 | 0.00 | 0.08 | 0.08 | 89 | 1012.6 |
| 20260903182704 | 71 | 90 | 0.0 | 2.0 | 0.00 | 0.08 | 0.08 | 89 | 1012.5 |
| 20260903180704 | 70 | 85 | 0.0 | 1.0 | 0.00 | 0.08 | 0.08 | 90 | 1012.7 |
| 20260903175705 | 70 | 85 | 0.0 | 1.0 | 0.00 | 0.08 | 0.08 | 91 | 1013.0 |
| 20260903173205 | 70 | 71 | 0.0 | 0.0 | 0.00 | 0.08 | 0.08 | 92 | 1013.2 |
| 20260903172204 | 70 | 71 | 0.0 | 0.0 | 0.00 | 0.08 | 0.08 | 91 | 1013.1 |
| 20260903170705 | 69 | 72 | 0.0 | 1.0 | 0.00 | 0.08 | 0.08 | 92 | 1012.9 |
| 20260903170205 | 69 | 70 | 0.0 | 1.0 | 0.00 | 0.08 | 0.08 | 91 | 1012.9 |
| 20260903163204 | 68 | 217 | 0.0 | 1.0 | 0.00 | 0.08 | 0.08 | 95 | 1013.0 |
| 20260903162704 | 68 | 217 | 0.0 | 0.0 | 0.00 | 0.08 | 0.08 | 94 | 1013.1 |
| 20260903161704 | 68 | 217 | 0.0 | 0.0 | 0.00 | 0.08 | 0.08 | 94 | 1013.1 |
| 20260903161204 | 68 | 217 | 0.0 | 1.0 | 0.00 | 0.08 | 0.08 | 94 | 1013.2 |
| 20260903160704 | 68 | 219 | 0.0 | 1.0 | 0.00 | 0.08 | 0.08 | 95 | 1013.3 |
| 20260903160204 | 68 | 69 | 0.0 | 1.0 | 0.00 | 0.08 | 0.08 | 96 | 1013.3 |
| 20260903155204 | 67 | 90 | 0.0 | 1.0 | 0.00 | 0.08 | 0.08 | 96 | 1013.0 |
| 20260903154704 | 67 | 93 | 0.0 | 1.0 | 0.00 | 0.08 | 0.08 | 97 | 1013.3 |
| 20260903153705 | 66 | 67 | 0.0 | 1.0 | 0.00 | 0.08 | 0.08 | 97 | 1013.5 |
| 20260903153204 | 66 | 53 | 0.0 | 1.0 | 0.00 | 0.08 | 0.08 | 96 | 1013.7 |
| 20260903152705 | 66 | 53 | 0.0 | 1.0 | 0.00 | 0.08 | 0.08 | 97 | 1013.7 |
| 20260903152205 | 66 | 53 | 0.0 | 1.0 | 0.00 | 0.08 | 0.08 | 97 | 1013.7 |
| 20260903150704 | 65 | 53 | 0.0 | 1.0 | 0.00 | 0.08 | 0.08 | 97 | 1013.8 |